, FL

(GMT )
Crestview

Weather History for KEGI - September, 2012

Change the Weather History Date:

Saturday, September 15, 2012

  Actual Average Record
Temperature  
Mean Temperature 78 °F -  
Max Temperature 88 °F - - ()
Min Temperature 67 °F - - ()
Cooling Degree Days 12    
Growing Degree Days 28 (Base 50)    
Moisture  
Dew Point 67 °F    
Average Humidity 73    
Maximum Humidity 93    
Minimum Humidity 47    
Precipitation  
Precipitation 0.00 in - - ()
Sea Level Pressure  
Sea Level Pressure 30.10 in    
Wind  
Wind Speed 4 mph (NE)    
Max Wind Speed 10 mph    
Max Gust Speed -    
Visibility 10 miles    
Events      
Averages and records for this station are not official NWS values.
T = Trace of Precipitation, MM = Missing Value Source: NWS Daily Summary

Daily Weather History Graph

Daily Weather History Graph

Search for Another Location

Airport or City:

Trip Planner

Search our weather history database for the weather conditions in past years. The results will help you decide how hot, cold, wet, or windy it might be!

Date:

Astronomy

Sep. 15, 2012 Rise Set
Actual Time 6:30 AM CDT 6:50 PM CDT
Civil Twilight 6:06 AM CDT 7:15 PM CDT
Nautical Twilight 5:38 AM CDT 7:43 PM CDT
Astronomical Twilight 5:09 AM CDT 8:11 PM CDT
Moon 5:59 AM CDT (9/15) 6:25 PM CDT (9/15)
Length of Visible Light 13h 08m
Length of Day
12h 20m
Waning Crescent, 0% of the Moon is Illuminated
Sep 15
Waning Crescent
Sep 15
New
Sep 22
First Quarter
Sep 29
Full
Oct 8
Last Quarter

Hourly Weather History & Observations

Time (CDT) Temp. Heat Index Dew Point Humidity Pressure Visibility Wind Dir Wind Speed Gust Speed Precip Events Conditions
12:55 AM 73.8 °F - 66.4 °F 78% 30.12 in 10.0 mi NNE 3.5 mph - N/A   Overcast
1:55 AM 73.0 °F - 66.4 °F 80% 30.11 in 10.0 mi NNE 3.5 mph - N/A   Overcast
2:55 AM 71.8 °F - 66.0 °F 82% 30.09 in 10.0 mi NE 3.5 mph - N/A   Scattered Clouds
3:55 AM 69.8 °F - 65.5 °F 86% 30.09 in 10.0 mi Calm Calm - N/A   Clear
4:55 AM 68.7 °F - 65.5 °F 89% 30.09 in 10.0 mi NNW 3.5 mph - N/A   Clear
5:55 AM 67.6 °F - 65.3 °F 92% 30.11 in 10.0 mi Calm Calm - N/A   Clear
6:55 AM 68.0 °F - 65.8 °F 93% 30.13 in 10.0 mi NE 3.5 mph - N/A   Clear
7:55 AM 72.5 °F - 66.9 °F 83% 30.13 in 10.0 mi NE 5.8 mph - N/A   Clear
8:55 AM 77.2 °F - 69.1 °F 76% 30.13 in 10.0 mi East 8.1 mph - N/A   Scattered Clouds
9:55 AM 81.9 °F 85.2 °F 69.3 °F 65% 30.13 in 10.0 mi East 8.1 mph - N/A   Partly Cloudy
10:26 AM 84.2 °F 88.4 °F 69.8 °F 62% 30.12 in 10.0 mi ENE 8.1 mph - N/A   Mostly Cloudy
10:45 AM 82.4 °F 85.4 °F 68.0 °F 62% 30.12 in 10.0 mi ENE 6.9 mph - N/A   Scattered Clouds
10:46 AM 82.4 °F 85.4 °F 68.0 °F 62% 30.12 in 10.0 mi ENE 6.9 mph - N/A   Mostly Cloudy
10:50 AM 82.4 °F 85.4 °F 68.0 °F 62% 30.12 in 10.0 mi ENE 6.9 mph - N/A   Mostly Cloudy
10:55 AM 83.5 °F 86.9 °F 68.5 °F 61% 30.12 in 10.0 mi ENE 8.1 mph - N/A   Mostly Cloudy
11:55 AM 85.6 °F 89.1 °F 68.2 °F 56% 30.11 in 10.0 mi ENE 10.4 mph - N/A   Scattered Clouds
12:55 PM 87.1 °F 89.9 °F 67.1 °F 51% 30.09 in 10.0 mi ENE 10.4 mph - N/A   Clear
1:55 PM 87.3 °F 89.8 °F 66.4 °F 50% 30.07 in 10.0 mi ENE 8.1 mph - N/A   Partly Cloudy
2:55 PM 88.2 °F 90.3 °F 65.7 °F 47% 30.05 in 10.0 mi ENE 5.8 mph - N/A   Partly Cloudy
7:55 PM 75.6 °F - 68.9 °F 80% 30.05 in 10.0 mi Calm Calm - N/A   Partly Cloudy
8:55 PM 73.6 °F - 68.5 °F 84% 30.07 in 10.0 mi Calm Calm - N/A   Partly Cloudy
9:55 PM 72.9 °F - 68.9 °F 87% 30.08 in 10.0 mi Calm Calm - N/A   Overcast
10:55 PM 72.3 °F - 68.7 °F 88% 30.08 in 10.0 mi Calm Calm - N/A   Mostly Cloudy
11:55 PM 72.5 °F - 68.9 °F 88% 30.08 in 10.0 mi Calm Calm - N/A   Scattered Clouds